[[{"header":{"parameterUnit":"m.s-1","parameterCategory":1,"la1":30.2991,"la2":30.254,"lo1":-89.0895,"lo2":-89.0444,"dy":0.0017,"dx":0.0017,"nx":28,"ny":28,"refTime":"2025-09-15T03:00:00:Z","depth":0,"parameterNumber":2,"parameterNumberName":"U-component_of_WINDS"},"data":[0,0,0,0,0,0,0,0,0,0,0,0,0,0,0,0,0,0,0,0,0,0,0,0,0,0,0,0,0,0,0,0,0,0,0,0,0,0,0,0,0,0,0,0,0,0,0,0,0,0,0,0,0,0,0,0,0,0,1.1478,1.1479,0,1.1564,1.1565,1.1566,1.1586,1.1585,1.1585,1.1584,1.1675,1.1678,1.1681,0,0,0,0,0,0,0,0,0,0,0,0,0,1.1331,1.1334,1.1478,1.1479,1.148,1.1564,1.1565,1.1566,1.1586,1.1585,1.1584,1.1584,1.1674,1.1677,1.1681,0,0,0,0,0,0,0,0,0,0,0,0,0,1.1404,1.1335,1.1478,1.15,1.1503,1.1564,1.1565,1.1567,1.1586,1.1585,1.1584,1.1583,1.1673,1.1677,1.1681,1.1727,0,0,1.1695,1.1697,0,0,0,0,0,0,0,0,1.14,1.141,1.1496,1.1499,1.1502,1.1563,1.1547,1.1621,1.1586,1.1554,1.1584,1.1583,1.1639,1.1646,1.1664,1.1732,1.1736,1.1696,1.1698,1.17,1.1701,0,0,0,0,0,0,0,1.1395,1.1406,1.1512,1.1497,1.1501,1.1506,1.1515,1.1561,1.1601,1.1557,1.1559,1.1569,1.164,1.166,1.1666,1.1737,1.1695,1.1699,1.1702,1.1704,1.1844,1.1845,0,0,0,0,0,0,1.1386,1.1402,1.151,1.1515,1.1448,1.1509,1.152,1.1544,1.16,1.1608,1.1569,1.1569,1.1653,1.1661,1.167,1.1725,1.17,1.1704,1.1707,1.1843,1.1844,1.1846,0,0,0,0,0,0,1.1383,1.1395,1.1506,1.1459,1.1473,1.1513,1.154,1.1547,1.1566,1.1609,1.1617,1.1582,1.1652,1.1663,1.1712,1.1729,1.1706,1.171,1.1842,1.1844,1.1845,1.1838,0,0,0,0,0,0,1.1378,1.1394,1.1412,1.1459,1.1476,1.1547,1.1542,1.1549,1.1574,1.1574,1.1623,1.163,1.1652,1.1705,1.1717,1.1735,1.1714,1.1841,1.1843,1.1845,1.1837,1.1839,1.1841,0,0,0,0,0,1.1373,1.1407,1.1413,1.1425,1.1498,1.1548,1.1557,1.1581,1.1575,1.1593,1.162,1.1629,1.1725,1.171,1.1723,1.1743,1.184,1.1842,1.1844,1.1836,1.1839,1.1841,0,0,0,0,0,0,1.1363,1.1414,1.142,1.1471,1.1504,1.1551,1.1574,1.1583,1.162,1.162,1.1648,1.1659,1.1706,1.1729,1.1712,1.1789,1.1782,1.1787,1.1771,1.1774,1.1776,1.1769,1.1718,0,0,0,0,0,1.1366,1.1401,1.1444,1.1485,1.1501,1.1535,1.1557,1.1572,1.1609,1.1623,1.1655,1.169,1.1728,1.1753,1.1791,1.1841,1.1851,1.186,1.1862,1.1864,1.1867,1.1894,1.1898,1.1853,1.1853,1.1853,0,0,1.1374,1.1406,1.1427,1.1483,1.1511,1.1547,1.1547,1.1585,1.1612,1.163,1.1677,1.1701,1.1742,1.1791,1.1814,1.1812,1.1882,1.1867,1.1868,1.1871,1.1896,1.1901,1.1904,1.1855,1.1855,1.1854,0,0,1.1405,1.1434,1.147,1.1497,1.1539,1.156,1.1569,1.1614,1.163,1.1677,1.1691,1.1723,1.1789,1.1817,1.184,1.188,1.1889,1.1892,1.1903,1.1928,1.1931,1.1934,1.1947,1.1952,1.1896,1.1896,1.1896,0,1.141,1.1463,1.1487,1.1524,1.1548,1.1564,1.16,1.1626,1.1678,1.1695,1.1691,1.1772,1.1802,1.1856,1.1866,1.1885,1.1895,1.1886,1.1929,1.1932,1.1936,1.1948,1.1953,1.1896,1.1896,1.1896,1.1896,0,1.1466,1.1503,1.1526,1.1574,1.1601,1.1638,1.1667,1.1691,1.1704,1.1726,1.1773,1.1809,1.1853,1.1867,1.1881,1.1924,1.1921,1.1923,1.1917,1.1939,1.1951,1.1957,1.1896,1.1896,1.1896,1.1896,0,0,1.1493,1.1553,1.1561,1.1582,1.1628,1.1657,1.1694,1.1736,1.1756,1.1791,1.1822,1.1876,1.1877,1.1903,1.192,1.1943,1.197,1.1942,1.1943,1.1944,1.2017,1.2014,1.2019,1.1976,1.1977,1.1978,1.2013,0,1.1529,1.1594,1.1616,1.167,1.1703,1.1719,1.1751,1.1782,1.1804,1.1836,1.186,1.1897,1.1897,1.1912,1.1935,1.1962,1.1985,1.196,1.2005,1.2006,1.1992,1.2026,1.2024,1.2055,1.2018,1.2019,1.202,0,1.158,1.1614,1.167,1.1711,1.1726,1.1754,1.1793,1.1823,1.1859,1.1873,1.1901,1.1916,1.1954,1.1946,1.1999,1.1982,1.2002,1.2017,1.2019,1.2023,1.2013,1.203,1.2066,1.207,1.2028,1.2027,1.2027,0,1.1592,1.1652,1.1693,1.1711,1.176,1.1779,1.18,1.1835,1.1858,1.1893,1.1908,1.1947,1.1968,1.1998,1.2023,1.2015,1.2073,1.2068,1.2085,1.2084,1.2096,1.2095,1.2134,1.2111,1.2111,1.2111,1.2111,0,1.1629,1.1662,1.1699,1.1724,1.1762,1.1787,1.1823,1.1846,1.1877,1.1906,1.1923,1.1951,1.1982,1.2014,1.2034,1.2074,1.2084,1.2096,1.21,1.2093,1.2092,1.2106,1.2104,1.2112,1.2112,1.2111,1.2111,0,1.1648,1.1674,1.1719,1.1761,1.1772,1.1798,1.1834,1.1859,1.188,1.1918,1.1928,1.1962,1.2,1.2028,1.2078,1.2091,1.2133,1.2138,1.212,1.2122,1.2138,1.2135,1.2187,1.2194,1.2167,1.2167,1.2167,0,1.1669,1.1695,1.1739,1.1759,1.178,1.1813,1.1836,1.1862,1.1885,1.1927,1.1947,1.1986,1.2018,1.2078,1.2107,1.2145,1.2151,1.2166,1.2156,1.2148,1.2149,1.2147,1.2149,1.2167,1.2167,1.2167,1.2168,0,1.1703,1.1714,1.1746,1.1783,1.1809,1.184,1.187,1.1886,1.1917,1.1942,1.1981,1.2005,1.2055,1.2093,1.2133,1.2156,1.2166,1.217,1.2176,1.2169,1.2157,1.2162,1.2122,1.2169,1.2169,1.2169,1.2169,1.2169,1.1723,1.1746,1.178,1.1815,1.184,1.1867,1.1892,1.1916,1.1948,1.199,1.2003,1.2042,1.2077,1.2132,1.2154,1.2185,1.2185,1.2194,1.2196,1.2197,1.2196,1.2152,1.2193,1.2193,1.2193,1.2193,1.2193,0,1.1756,1.1778,1.181,1.1851,1.1879,1.1886,1.1919,1.1942,1.1976,1.2007,1.2037,1.2081,1.2117,1.2149,1.2187,1.2206,1.2212,1.2215,1.2213,1.2218,1.2195,1.2185,1.2209,1.2209,1.2209,1.2209,1.2209,1.2209,1.1777,1.1815,1.183,1.1881,1.1903,1.1941,1.1959,1.1985,1.2009,1.2056,1.2086,1.2106,1.2138,1.2178,1.2211,1.222,1.2232,1.2234,1.2244,1.2222,1.222,1.2218,1.2209,1.2237,1.2237,1.2264,1.2264,1.2264]},{"header":{"parameterUnit":"m.s-1","parameterCategory":1,"la1":30.2991,"la2":30.254,"lo1":-89.0895,"lo2":-89.0444,"dy":0.0017,"dx":0.0017,"nx":28,"ny":28,"refTime":"2025-09-15T03:00:00:Z","depth":0,"parameterNumber":3,"parameterNumberName":"V-component_of_WINDS"},"data":[0,0,0,0,0,0,0,0,0,0,0,0,0,0,0,0,0,0,0,0,0,0,0,0,0,0,0,0,0,0,0,0,0,0,0,0,0,0,0,0,0,0,0,0,0,0,0,0,0,0,0,0,0,0,0,0,0,0,3.0371,3.0369,0,3.0185,3.0183,3.0181,3.0036,3.0035,3.0034,3.0032,2.9834,2.983,2.9826,0,0,0,0,0,0,0,0,0,0,0,0,0,3.0593,3.059,3.0372,3.0369,3.0367,3.0186,3.0183,3.0181,3.0037,3.0035,3.0033,3.0032,2.9835,2.9831,2.9826,0,0,0,0,0,0,0,0,0,0,0,0,0,3.0461,3.0589,3.0372,3.0273,3.0263,3.0186,3.0183,3.018,3.0037,3.0035,3.0033,3.0031,2.9837,2.9831,2.9825,2.9829,0,0,2.9807,2.9804,0,0,0,0,0,0,0,0,3.0469,3.0453,3.029,3.028,3.0268,3.0132,3.0188,3.0062,3.0037,3.0122,3.0032,3.003,2.9934,2.992,2.989,2.982,2.9811,2.9806,2.9803,2.98,2.9798,0,0,0,0,0,0,0,3.0478,3.046,3.0298,3.0288,3.0274,3.0236,3.0215,3.0164,3.0042,3.0115,3.0104,3.0084,2.9928,2.9896,2.9884,2.9808,2.9806,2.9801,2.9797,2.9795,2.9729,2.9731,0,0,0,0,0,0,3.0504,3.0469,3.0303,3.0292,3.0366,3.0233,3.021,3.0178,3.0042,3.002,3.0086,3.0078,2.9907,2.9891,2.9876,2.987,2.98,2.9794,2.9791,2.9727,2.973,2.9732,0,0,0,0,0,0,3.0509,3.0491,3.0311,3.0377,3.0352,3.0232,3.0197,3.0175,3.0143,3.0021,2.9997,3.0077,2.9905,2.9885,2.9842,2.9861,2.9792,2.9786,2.9725,2.9728,2.9731,2.9859,0,0,0,0,0,0,3.0516,3.0493,3.0496,3.0379,3.0349,3.0283,3.0198,3.0173,3.0134,3.0122,3.0005,2.9984,2.9902,2.9852,2.9836,2.9852,2.9782,2.9723,2.9727,2.973,2.9853,2.9866,2.9878,0,0,0,0,0,3.0525,3.0538,3.0497,3.0478,3.035,3.0284,3.0267,3.0174,3.0136,3.0136,3.0057,2.9988,2.9862,2.9848,2.9829,2.9844,2.9721,2.9726,2.973,2.9847,2.9864,2.9877,0,0,0,0,0,0,3.0658,3.0521,3.0474,3.045,3.0381,3.026,3.0257,3.0195,3.0132,3.0123,3.0008,2.9983,2.9952,2.9893,2.988,2.9839,2.9782,2.9783,2.9878,2.9893,2.9905,2.9919,2.9777,0,0,0,0,0,3.0686,3.0647,3.0528,3.0519,3.0486,3.0379,3.0346,3.0281,3.0203,3.0172,3.0089,3.0014,2.9957,2.9922,2.9863,2.9844,2.9815,2.9844,2.9857,2.9867,2.9869,2.9852,2.9863,2.9745,2.9745,2.9745,0,0,3.0741,3.0661,3.0643,3.0544,3.0482,3.0441,3.0354,3.0315,3.0283,3.0165,3.0119,3.0057,2.9964,2.9933,2.9915,2.9883,2.9895,2.9873,2.9882,2.9877,2.9857,2.9868,2.9878,2.9748,2.9748,2.9747,0,0,3.082,3.0757,3.0742,3.0682,3.059,3.0518,3.0514,3.0403,3.0357,3.0311,3.0221,3.0179,3.0084,3.0022,2.9977,3.0032,2.9965,3.0016,3.008,3.0065,3.0074,3.0082,3.0099,3.0107,3.0018,3.0018,3.0018,0,3.0899,3.0837,3.0741,3.0707,3.0665,3.0558,3.054,3.0485,3.0378,3.035,3.0317,3.0194,3.0125,3.0076,3.009,3.0058,3.0048,3.0028,3.0081,3.0088,3.0093,3.0108,3.0115,3.0025,3.0024,3.0023,3.0023,0,3.0937,3.0896,3.0894,3.0795,3.0752,3.0727,3.0624,3.0592,3.053,3.0461,3.0413,3.0326,3.0246,3.023,3.0169,3.0172,3.0155,3.0103,3.0044,3.0113,3.0125,3.013,3.0034,3.0032,3.003,3.0028,0,0,3.1095,3.0944,3.0945,3.0898,3.0789,3.0753,3.0721,3.0646,3.0619,3.0548,3.0516,3.0438,3.0389,3.0339,3.027,3.0257,3.0303,3.0205,3.0201,3.0225,3.0298,3.0337,3.0345,3.0258,3.0259,3.0259,3.0305,0,3.1155,3.1095,3.1007,3.0975,3.0933,3.0831,3.0803,3.0731,3.0665,3.0618,3.0543,3.0489,3.043,3.0399,3.0381,3.0301,3.0315,3.0297,3.0224,3.0223,3.0249,3.0352,3.0393,3.044,3.0309,3.031,3.0311,0,3.1218,3.1155,3.112,3.1012,3.0991,3.0968,3.0891,3.0848,3.0763,3.0715,3.066,3.0585,3.0542,3.049,3.0428,3.0417,3.0382,3.0338,3.0337,3.0326,3.027,3.0341,3.0453,3.046,3.0317,3.0317,3.0316,0,3.1334,3.124,3.1206,3.117,3.1044,3.1029,3.0976,3.0889,3.0849,3.0781,3.0753,3.068,3.064,3.0583,3.0489,3.046,3.0437,3.0377,3.0393,3.0396,3.0392,3.0393,3.0499,3.0373,3.0372,3.0372,3.0372,0,3.1409,3.1391,3.1257,3.1236,3.1211,3.1109,3.1086,3.1023,3.0947,3.0909,3.0815,3.0782,3.066,3.0611,3.0537,3.0495,3.0478,3.0436,3.0416,3.0444,3.0449,3.0418,3.0412,3.0374,3.0374,3.0373,3.0373,0,3.1535,3.1444,3.14,3.1286,3.1256,3.1243,3.1143,3.1117,3.1046,3.0999,3.0982,3.0869,3.0806,3.0707,3.0615,3.0564,3.0535,3.0503,3.0565,3.0552,3.0574,3.0573,3.0662,3.0667,3.0541,3.0542,3.0543,0,3.1588,3.1572,3.1456,3.1426,3.1376,3.1328,3.1287,3.1185,3.1145,3.1047,3.1032,3.0963,3.0902,3.0806,3.0713,3.0641,3.0605,3.0642,3.0594,3.0621,3.0603,3.0605,3.0602,3.0653,3.0654,3.0656,3.0657,0,3.1692,3.1648,3.1594,3.1525,3.1479,3.1419,3.1353,3.1333,3.1215,3.1175,3.1111,3.1064,3.097,3.0901,3.0816,3.0757,3.0687,3.0673,3.0673,3.07,3.0736,3.0715,3.0593,3.0671,3.067,3.0669,3.0668,3.0668,3.1781,3.1761,3.1677,3.1619,3.156,3.1501,3.1471,3.1396,3.1342,3.126,3.1202,3.1141,3.1053,3.0933,3.0877,3.0826,3.0795,3.0795,3.0795,3.0796,3.0805,3.0746,3.081,3.0809,3.0809,3.0808,3.0808,0,3.1878,3.1819,3.1767,3.168,3.1634,3.1575,3.1499,3.1464,3.1413,3.1339,3.1281,3.1206,3.1139,3.1042,3.0966,3.0943,3.0909,3.0926,3.0926,3.0913,3.0838,3.0845,3.0955,3.0955,3.0955,3.0955,3.0955,3.0955,3.1923,3.1886,3.1833,3.1764,3.1703,3.1646,3.1607,3.1551,3.1491,3.1413,3.1358,3.1296,3.1211,3.1128,3.1063,3.1035,3.1011,3.1038,3.1001,3.0932,3.0919,3.0906,3.0912,3.1034,3.1035,3.108,3.108,3.1081]}]]